IRNSS-1F

Last updated on Jan. 29, 2020, 4:37 a.m. UTC

1 41384U 16015A   20028.79306014  .00000158  00000-0  00000+0 0  9998
2 41384   2.3567 227.7217 0019565 176.4062  41.3473  1.00266304 14307
UTC
Height (km)
Latitude
Longitude
Inclination
Orbital Period
UTC large
Height (km)
Speed (km/s)
/
Latitude / Longitude
Inclination (degrees)
Orbital Period (minutes)
Azimuth
Elevation
Range (km)
Doppler Factor
iOS Compass Heading
iOS Angle

Next 30 passes for location: Hong Kong

Rise time Rise Azimuth (degrees) Set time Set Azimuth (degrees) Duration Max altitude (degrees)

No matching passes for this satellites